Weather in Kuzhener

Russia / Mari El Republic     56°48′40″N   48°54′52″E
temp.,
°C
wind,
m/s
gust,
m/s
humid.,
%
clouds,
%
prec.,
mm/h
press.,
hPa
HPBL,
m
28 february, sun
sun2800:00−18n499798 0.0 1007195
03:00−20n599880 0.0 1008192
06:00−20n499985 0.0 1009189
09:00−19n489679 0.0 1010236
12:00−16n579361 0.0 1011328
15:00−14n589271 0.0 1012474
18:00−17n3798100 0.0 1014137
21:00−20n349989 0.1 101749
1 march, mon
mon100:00−21n34980 0.0 101844
03:00−22nnw33980 0.0 102037
06:00−23nnw33980 0.0 102128
09:00−19nw12940 0.0 1021108
12:00−14wnw238718 0.0 1020305
15:00−12wsw359151 0.0 1019347
18:00−13sw489797 0.0 1017208
21:00−13sw599799 0.1 1014243
2 march, tue
tue200:00−11ssw61195100 0.1 1010318
03:00−8ssw61394100 0.9 1005462
06:00−6ssw61294100 1.0 1001496
09:00−3ssw51096100 1.9 998477
12:000wsw47100100 1.3 996454
15:000w48100100 2.6 996536
18:00−1nw61098100 1.0 996584
21:00−4nw41093100 1.5 997259
3 march, wed
wed300:00−7nnw479583 0.0 998149
03:00−7nnw389789 0.0 999162
06:00−9nnw499791 0.0 1000153
09:00−7nw599585 0.1 1002276
12:00−4nw699399 0.1 1003566
15:00−4nnw7109299 0.3 1004869
18:00−7nnw4119196 0.1 1006328
21:00−9nw5129568 0.1 1008318
4 march, thu
thu400:00−11wnw499682 0.0 1009186
03:00−13w479886 0.1 1009139
06:00−12w499795 0.1 1009211
09:00−10wsw5109597 0.1 1007289
12:00−5sw71392100 0.0 1003607
15:00−3sw81494100 0.6 1000919
18:00−2sw81595100 1.3 997891
21:000wsw91696100 2.3 9951082